Weather History for Madison, MN

Change the Weather History Date:

Monday, October 3, 2011

  Actual Average (KAQP) Record (KAQP)
Temperature  
Mean Temperature 65 °F -  
Max Temperature 84 °F 62 °F 84 °F (2011)
Min Temperature 46 °F 37 °F 6 °F (1997)
Growing Degree Days 15 (Base 50)    
Moisture  
Dew Point 31 °F    
Average Humidity 40    
Maximum Humidity 82    
Minimum Humidity 6    
Precipitation  
Precipitation 0.00 in - - ()
Sea Level Pressure  
Sea Level Pressure 30.08 in    
Wind  
Wind Speed 8 mph (South)    
Max Wind Speed 18 mph    
Max Gust Speed 25 mph    
Visibility 9 miles    
Events      
Averages and records for this station are not official NWS values.
T = Trace of Precipitation, MM = Missing Value Source: NWS Daily Summary

Daily Weather History Graph

Daily Weather History Graph

Search for Another Location

Airport:

Trip Planner

Search our weather history database for the weather conditions in past years. The results will help you decide how hot, cold, wet, or windy it might be!

Date:

Astronomy

Oct. 03, 2011 Rise Set
Actual Time 7:24 AM CDT 7:01 PM CDT
Civil Twilight 6:55 AM CDT 7:31 PM CDT
Nautical Twilight 6:21 AM CDT 8:05 PM CDT
Astronomical Twilight 5:47 AM CDT 8:39 PM CDT
Moon 2:37 PM CDT (10/3) 11:52 PM CDT (10/3)
Length of Visible Light 12h 35m
Length of Day
11h 36m
Waxing Crescent, 45% of the Moon is Illuminated
Oct 3
Waxing Crescent
Oct 3
First Quarter
Oct 11
Full
Oct 19
Last Quarter
Oct 26
New

Hourly Weather History & Observations

Time (CDT) Temp. Windchill Dew Point Humidity Pressure Visibility Wind Dir Wind Speed Gust Speed Precip Events Conditions
12:34 AM 55.4 °F - 39.2 °F 54% 30.08 in 10.0 mi South 6.9 mph - N/A   Clear
12:53 AM 53.6 °F - 39.2 °F 58% 30.08 in 10.0 mi South 5.8 mph - N/A   Clear
1:14 AM 51.8 °F - 41.0 °F 67% 30.08 in 10.0 mi SSE 8.1 mph - N/A   Clear
1:33 AM 51.8 °F - 41.0 °F 67% 30.09 in 10.0 mi SSE 6.9 mph - N/A   Clear
2:14 AM 51.8 °F - 41.0 °F 67% 30.09 in 10.0 mi SE 5.8 mph - N/A   Clear
2:34 AM 50.0 °F - 41.0 °F 71% 30.10 in 10.0 mi SSE 4.6 mph - N/A   Clear
3:14 AM 50.0 °F - 41.0 °F 71% 30.09 in 10.0 mi SSE 5.8 mph - N/A   Clear
3:34 AM 50.0 °F - 41.0 °F 71% 30.09 in 10.0 mi SSE 6.9 mph - N/A   Clear
3:53 AM 48.2 °F - 41.0 °F 76% 30.09 in 10.0 mi SSE 5.8 mph - N/A   Clear
4:14 AM 48.2 °F - 41.0 °F 76% 30.09 in 10.0 mi SSE 6.9 mph - N/A   Clear
4:33 AM 50.0 °F - 41.0 °F 71% 30.10 in 10.0 mi Calm Calm - N/A   Clear
4:53 AM 50.0 °F - 41.0 °F 71% 30.10 in 10.0 mi SSE 5.8 mph - N/A   Clear
5:14 AM 50.0 °F - 41.0 °F 71% 30.10 in 10.0 mi SSE 4.6 mph - N/A   Clear
5:33 AM 51.8 °F - 41.0 °F 67% 30.10 in 10.0 mi South 4.6 mph - N/A   Clear
5:54 AM 50.0 °F - 41.0 °F 71% 30.10 in 10.0 mi South 4.6 mph - N/A   Clear
6:14 AM 50.0 °F - 41.0 °F 71% 30.10 in 10.0 mi South 4.6 mph - N/A   Clear
6:33 AM 50.0 °F - 41.0 °F 71% 30.10 in 10.0 mi South 5.8 mph - N/A   Clear
6:54 AM 48.2 °F - 41.0 °F 76% 30.11 in 10.0 mi SSE 5.8 mph - N/A   Clear
7:13 AM 46.4 °F 42.9 °F 41.0 °F 81% 30.11 in 10.0 mi SSE 6.9 mph - N/A   Clear
7:33 AM 46.4 °F 42.9 °F 41.0 °F 81% 30.11 in 10.0 mi SSE 6.9 mph - N/A   Clear
7:54 AM 48.2 °F - 41.0 °F 76% 30.11 in 7.0 mi SE 6.9 mph - N/A   Clear
8:14 AM 48.2 °F - 42.8 °F 82% 30.11 in 7.0 mi SSE 4.6 mph - N/A   Clear
8:33 AM 53.6 °F - 41.0 °F 62% 30.11 in 10.0 mi SSE 4.6 mph - N/A   Clear
8:54 AM 55.4 °F - 41.0 °F 58% 30.11 in 10.0 mi SSE 5.8 mph - N/A   Clear
9:14 AM 59.0 °F - 39.2 °F 48% 30.11 in 10.0 mi South 6.9 mph - N/A   Clear
9:33 AM 60.8 °F - 39.2 °F 45% 30.11 in 10.0 mi South 6.9 mph - N/A   Clear
9:54 AM 64.4 °F - 39.2 °F 40% 30.11 in 10.0 mi South 8.1 mph - N/A   Clear
10:14 AM 66.2 °F - 37.4 °F 35% 30.11 in 10.0 mi South 9.2 mph - N/A   Clear
10:33 AM 69.8 °F - 35.6 °F 28% 30.11 in 10.0 mi South 11.5 mph - N/A   Clear
10:54 AM 71.6 °F - 30.2 °F 22% 30.11 in 10.0 mi South 13.8 mph - N/A   Clear
11:14 AM 75.2 °F - 28.4 °F 18% 30.11 in 10.0 mi South 13.8 mph - N/A   Clear
11:33 AM 77.0 °F - 26.6 °F 16% 30.10 in 10.0 mi South 13.8 mph 18.4 mph N/A   Clear
11:54 AM 78.8 °F - 24.8 °F 14% 30.09 in 10.0 mi South 18.4 mph 25.3 mph N/A   Clear
12:14 PM 78.8 °F - 21.2 °F 12% 30.09 in 10.0 mi South 18.4 mph 25.3 mph N/A   Clear
12:33 PM 80.6 °F - 19.4 °F 10% 30.09 in 10.0 mi South 17.3 mph 25.3 mph N/A   Clear
1:14 PM 82.4 °F - 17.6 °F 9% 30.08 in 10.0 mi South 15.0 mph 21.9 mph N/A   Clear
1:33 PM 80.6 °F - 15.8 °F 9% 30.08 in 10.0 mi South 18.4 mph 24.2 mph N/A   Clear
1:54 PM 82.4 °F - 15.8 °F 8% 30.07 in 10.0 mi South 13.8 mph 24.2 mph N/A   Clear
2:13 PM 82.4 °F - 15.8 °F 8% 30.06 in 10.0 mi South 18.4 mph - N/A   Unknown
2:34 PM 82.4 °F - 12.2 °F 7% 30.05 in 10.0 mi South 16.1 mph 21.9 mph N/A   Clear
2:54 PM 82.4 °F - 12.2 °F 7% 30.05 in 10.0 mi South 16.1 mph 20.7 mph N/A   Clear
3:13 PM 82.4 °F - 10.4 °F 7% 30.05 in 10.0 mi South 15.0 mph 23.0 mph N/A   Clear
3:33 PM 82.4 °F - 10.4 °F 7% 30.05 in 10.0 mi South 16.1 mph 23.0 mph N/A   Clear
3:54 PM 84.2 °F - 10.4 °F 6% 30.05 in 10.0 mi South 13.8 mph 18.4 mph N/A   Clear
4:13 PM 84.2 °F - 10.4 °F 6% 30.05 in 10.0 mi South 12.7 mph - N/A   Clear
4:33 PM 84.2 °F - 12.2 °F 7% 30.05 in 10.0 mi SSW 11.5 mph 19.6 mph N/A   Clear
4:54 PM 82.4 °F - 12.2 °F 7% 30.05 in 10.0 mi South 10.4 mph - N/A   Clear
5:13 PM 82.4 °F - 12.2 °F 7% 30.05 in 10.0 mi South 11.5 mph 18.4 mph N/A   Clear
5:34 PM 82.4 °F - 15.8 °F 8% 30.05 in 10.0 mi South 10.4 mph - N/A   Clear
5:53 PM 80.6 °F - 21.2 °F 11% 30.05 in 10.0 mi South 8.1 mph - N/A   Clear
6:13 PM 78.8 °F - 23.0 °F 13% 30.05 in 10.0 mi South 5.8 mph - N/A   Clear
6:34 PM 75.2 °F - 26.6 °F 17% 30.05 in 5.0 mi SSE 6.9 mph - N/A   Haze
6:53 PM 73.4 °F - 28.4 °F 19% 30.05 in 4.0 mi SSE 8.1 mph - N/A   Haze
7:14 PM 71.6 °F - 30.2 °F 22% 30.06 in 7.0 mi SSE 6.9 mph - N/A   Clear
7:34 PM 68.0 °F - 35.6 °F 30% 30.06 in 5.0 mi SE 6.9 mph - N/A   Haze
8:14 PM 64.4 °F - 37.4 °F 37% 30.06 in 7.0 mi SSE 6.9 mph - N/A   Clear
8:34 PM 62.6 °F - 37.4 °F 39% 30.06 in 4.0 mi SSE 8.1 mph - N/A   Haze
8:54 PM 62.6 °F - 35.6 °F 37% 30.07 in 7.0 mi SE 6.9 mph - N/A   Clear
9:14 PM 62.6 °F - 35.6 °F 37% 30.07 in 5.0 mi Calm Calm - N/A   Haze
9:33 PM 62.6 °F - 33.8 °F 34% 30.07 in 7.0 mi SSE 8.1 mph - N/A   Clear
9:54 PM 60.8 °F - 33.8 °F 36% 30.07 in 7.0 mi SSE 8.1 mph - N/A   Clear
10:14 PM 60.8 °F - 33.8 °F 36% 30.07 in 7.0 mi SSE 6.9 mph - N/A   Clear
10:33 PM 59.0 °F - 35.6 °F 42% 30.08 in 7.0 mi SSE 6.9 mph - N/A   Clear
10:54 PM 57.2 °F - 35.6 °F 44% 30.08 in 7.0 mi SSE 5.8 mph - N/A   Clear
11:14 PM 57.2 °F - 35.6 °F 44% 30.08 in 7.0 mi SSE 6.9 mph - N/A   Clear
11:33 PM 55.4 °F - 35.6 °F 47% 30.08 in 7.0 mi SSE 8.1 mph - N/A   Clear
11:54 PM 55.4 °F - 37.4 °F 51% 30.08 in 7.0 mi SSE 6.9 mph - N/A   Clear